Tampa, FL

1:35 PM EST on December 15, 2017 (GMT -0500)
Tampa International

Weather History for KTPA - February, 2013

Change the Weather History Date:

Sunday, February 3, 2013

  Actual Average Record
Temperature  
Mean Temperature 58 °F 62 °F  
Max Temperature 71 °F 71 °F 84 °F (1950)
Min Temperature 45 °F 53 °F 26 °F (1917)
Degree Days  
Heating Degree Days 7 5  
Month to date heating degree days 23 15  
Since 1 July heating degree days 201 380  
Cooling Degree Days 0 2  
Month to date cooling degree days 0 6  
Year to date cooling degree days 125 56  
Growing Degree Days 8 (Base 50)    
Moisture  
Dew Point 46 °F    
Average Humidity 64    
Maximum Humidity 83    
Minimum Humidity 44    
Precipitation  
Precipitation 0.00 in 0.10 in 8.29 in (2006)
Month to date precipitation 0.00 0.31  
Year to date precipitation 0.63 2.54  
Sea Level Pressure  
Sea Level Pressure 30.17 in    
Wind  
Wind Speed 5 mph (NW)    
Max Wind Speed 16 mph    
Max Gust Speed 22 mph    
Visibility 10 miles    
Events      
T = Trace of Precipitation, MM = Missing Value Source: NWS Daily Summary

Daily Weather History Graph

Daily Weather History Graph

Search for Another Location

Airport or City:

Trip Planner

Search our weather history database for the weather conditions in past years. The results will help you decide how hot, cold, wet, or windy it might be!

Date:

Astronomy

Feb. 03, 2013 Rise Set
Actual Time 7:15 AM EST 6:12 PM EST
Civil Twilight 6:51 AM EST 6:36 PM EST
Nautical Twilight 6:23 AM EST 7:04 PM EST
Astronomical Twilight 5:55 AM EST 7:32 PM EST
Moon 12:41 AM EST (2/3) 11:51 AM EST (2/3)
Length of Visible Light 11h 45m
Length of Day
10h 56m
Waning Gibbous, 49% of the Moon is Illuminated
Feb 3
Waning Gibbous
Feb 10
New
Feb 17
First Quarter
Feb 25
Full
Mar 4
Last Quarter

Hourly Weather History & Observations

Time (EST) Temp. Dew Point Humidity Pressure Visibility Wind Dir Wind Speed Gust Speed Precip Events Conditions
12:53 AM 50.0 °F 42.1 °F 74% 30.19 in 10.0 mi Calm Calm - N/A   Clear
1:53 AM 51.1 °F 43.0 °F 74% 30.17 in 10.0 mi NE 3.5 mph - N/A   Clear
2:53 AM 48.9 °F 42.1 °F 77% 30.16 in 10.0 mi East 3.5 mph - N/A   Clear
3:53 AM 48.0 °F 41.0 °F 77% 30.17 in 10.0 mi Calm Calm - N/A   Clear
4:53 AM 46.0 °F 41.0 °F 83% 30.17 in 10.0 mi Calm Calm - N/A   Clear
5:53 AM 46.0 °F 41.0 °F 83% 30.18 in 10.0 mi Calm Calm - N/A   Clear
6:53 AM 46.9 °F 41.0 °F 80% 30.20 in 10.0 mi Calm Calm - N/A   Clear
7:53 AM 48.0 °F 39.9 °F 74% 30.22 in 10.0 mi Calm Calm - N/A   Mostly Cloudy
8:53 AM 53.1 °F 43.0 °F 69% 30.22 in 10.0 mi Calm Calm - N/A   Overcast
9:53 AM 59.0 °F 46.9 °F 64% 30.22 in 10.0 mi North 4.6 mph - N/A   Overcast
10:53 AM 61.0 °F 48.9 °F 64% 30.22 in 10.0 mi WSW 4.6 mph - N/A   Mostly Cloudy
11:53 AM 63.0 °F 51.1 °F 65% 30.20 in 10.0 mi SW 6.9 mph - N/A   Mostly Cloudy
12:53 PM 69.1 °F 48.9 °F 49% 30.17 in 10.0 mi NW 10.4 mph - N/A   Mostly Cloudy
1:53 PM 70.0 °F 48.0 °F 46% 30.14 in 10.0 mi NNW 9.2 mph - N/A   Mostly Cloudy
2:53 PM 69.1 °F 46.9 °F 45% 30.12 in 10.0 mi NW 11.5 mph - N/A   Mostly Cloudy
3:53 PM 68.0 °F 48.0 °F 49% 30.12 in 10.0 mi West 12.7 mph 19.6 mph N/A   Scattered Clouds
4:53 PM 66.0 °F 46.9 °F 50% 30.12 in 10.0 mi West 10.4 mph 17.3 mph N/A   Scattered Clouds
5:53 PM 63.0 °F 50.0 °F 63% 30.12 in 10.0 mi West 10.4 mph - N/A   Clear
6:53 PM 59.0 °F 48.9 °F 69% 30.13 in 10.0 mi WNW 6.9 mph - N/A   Clear
7:53 PM 55.9 °F 50.0 °F 80% 30.14 in 10.0 mi NW 3.5 mph - N/A   Clear
8:53 PM 55.9 °F 50.0 °F 80% 30.15 in 10.0 mi WNW 4.6 mph - N/A   Clear
9:53 PM 54.0 °F 48.9 °F 83% 30.15 in 10.0 mi NW 4.6 mph - N/A   Clear
10:53 PM 53.1 °F 46.0 °F 77% 30.15 in 10.0 mi WNW 4.6 mph - N/A   Clear
11:53 PM 52.0 °F 43.0 °F 71% 30.14 in 10.0 mi Calm Calm - N/A   Clear